{"data":{"norad_id":65825,"epoch":"2026-09-20T16:23:26.601792Z","epoch_age_seconds":90301,"freshness":"FRESH","line1":"1 65825U 25221C   26263.68294678  .00013873  00000+0  42089-3 0  9994","line2":"2 65825  53.1571 258.6561 0001602  69.2164 290.9010 15.34405039 55993","mean_motion":15.34405039,"eccentricity":0.0001602,"inclination_deg":53.1571,"raan_deg":258.6561,"arg_perigee_deg":69.2164,"mean_anomaly_deg":290.901,"bstar":0.00042089,"rev_number":5599,"period_min":93.84744988445,"perigee_km":461.59236307099,"apogee_km":463.78416348535,"semimajor_km":6840.8252632782,"source":"CELESTRAK","updated_at":"2026-09-21T09:00:35.719210Z"}}